Flag for Switzerland Weather past 2 weeks in Schwyz, Schwyz, Switzerland

Now
58 °F

Cool.


Feels Like: 57 °F
Forecast: 57 / 71 °F
Wind: 6 mph from Southeast

Location: Altdorf

Current Time: Sep 20, 2014 at 6:45:40 AM

Latest Report: Sep 20, 2014 at 6:00 AM


Visibility: N/A

Pressure: 30.00 "Hg

Humidity: 87%

Dew point: 54 °F

Location of SchwyzLocation

Historic Weather in Schwyz — Graph

°F

Schwyz temperature yesterday

Maximum temperature yesterday: 72 °F (at 4:00 PM)
Minimum temperature yesterday: 60 °F (at 7:00 AM)
Average temperature yesterday: 67 °F

Past Weeks' High & Low Weather Summary

 TemperatureHumidityPressure
High76 °F (Sep 18, 1:00 PM)98% (Sep 14, 8:00 AM)30.14 "Hg (Sep 14, 8:00 AM)
Low47 °F (Sep 14, 8:00 AM)38% (Sep 18, 1:00 PM)29.81 "Hg (Sep 17, 5:00 PM)
Average62 °F80%29.97 "Hg
* Reported Sep 5 5:00 AM — Sep 20 5:00 AM, Schwyz, Weather by CustomWeather, © 2014

Note: Actual official high and low records may vary slightly from our data, if they occured in-between our weather recording intervals... More about our weather records

Advertising

Schwyz weather history for previous 24 hours

 ConditionsComfort  
Time TempWeatherWind HumidityBarometerVisibility
5:00 AM
Sep 20
61 °FPassing clouds.3 mph81%29.99 "Hg9 mi
4:00 AM59 °FCool.3 mph87%29.99 "HgN/A
3:00 AM57 °FCool.2 mph93%30.02 "HgN/A
2:00 AM57 °FPassing clouds.5 mph92%30.02 "Hg9 mi
1:00 AM58 °FCool.3 mph91%30.02 "HgN/A
12:00 AM60 °FCool.2 mph91%30.02 "HgN/A
10:00 PM
Sep 19
62 °FCool.2 mph83%29.99 "HgN/A
9:00 PM63 °FMild.2 mph82%29.98 "HgN/A
8:00 PM65 °FPassing clouds.5 mph79%29.97 "Hg9 mi
7:00 PM68 °FMild.1 mph76%29.95 "HgN/A
6:00 PM70 °FMild.2 mph67%29.93 "HgN/A
5:00 PM71 °FPartly sunny.7 mph66%29.92 "Hg12 mi
4:00 PM72 °FMild.9 mph62%29.91 "HgN/A
3:00 PM72 °FMild.10 mph62%29.91 "HgN/A
2:00 PM70 °FOvercast.7 mph66%29.93 "Hg16 mi
1:00 PM69 °FMild.6 mph67%29.93 "HgN/A
12:00 PM68 °FMild.10 mph74%29.93 "HgN/A
11:00 AM67 °FPartly sunny.5 mph74%29.95 "Hg16 mi
10:00 AM65 °FMild.5 mph77%29.94 "HgN/A
9:00 AM63 °FMild.9 mph80%29.95 "HgN/A
8:00 AM64 °FPartly sunny.13 mph75%29.93 "Hg16 mi
7:00 AM60 °FCool.3 mph82%29.93 "HgN/A
6:00 AM63 °FMild.7 mph77%29.92 "HgN/A
Weather by CustomWeather, © 2014

See weather overviewHow to use our weather pages